DateTimeUTC,F1_A11,F1_S11,BsB_S11,BsG_S11,BsR_S11,BbsB_S11,BbsG_S11,BbsR_S11,BaB_A11,BaG_A11,BaR_A11,Tu_S11,T_S11,Uu_S11,U_S11,P_S11,T1_A11
2021-10-30T14:00:00Z,00000200,21000000,,,,,,,-000.19,0000.12,0000.28,17.7,24.7,,00.0,0646.8,31.0
2021-10-30T14:01:00Z,00000200,21000000,,,,,,,0000.12,-000.26,-000.23,17.6,24.7,,00.0,0646.7,31.0
2021-10-30T14:02:00Z,00000200,21000000,,,,,,,-000.02,0000.27,0000.11,17.6,24.7,,00.0,0646.7,30.9
2021-10-30T14:03:00Z,00000200,61000000,,,,,,,0000.08,0000.04,-000.02,17.6,24.7,,00.0,0646.7,30.9
2021-10-30T14:04:00Z,00000200,41000000,0001.17,0000.40,0000.36,0000.13,0000.25,0000.29,0000.27,0000.04,0000.24,17.5,24.4,,00.0,0647.5,30.9
2021-10-30T14:05:00Z,00000200,01000000,0000.89,0000.34,-000.08,-000.40,0000.06,-000.05,0000.20,0000.26,0000.06,17.4,24.3,,00.0,0647.5,30.9
2021-10-30T14:06:00Z,00000200,01000000,0000.82,0000.31,0000.30,0000.05,-000.22,0000.14,0000.31,0000.09,0000.24,17.4,24.2,,00.0,0647.5,31.0
2021-10-30T14:07:00Z,00000200,01000000,0001.04,0000.17,0000.32,0000.45,0000.34,0000.34,0000.48,0000.29,0000.24,17.5,24.2,,00.0,0647.5,31.0
2021-10-30T14:08:00Z,00000200,01000000,0000.19,0000.45,0000.13,0000.34,0000.10,0000.03,0000.03,0000.40,0000.31,17.5,24.3,,00.0,0647.5,31.0
2021-10-30T14:09:00Z,00000200,01000000,0001.04,0000.25,0000.19,-000.14,0000.17,0000.36,0000.49,0000.55,0000.07,17.5,24.3,,00.0,0647.5,31.0
2021-10-30T14:10:00Z,00000200,01000000,0000.87,0000.38,0000.12,0000.25,0000.34,0000.06,0000.47,0000.50,0000.43,17.6,24.3,,00.0,0647.5,31.0
2021-10-30T14:11:00Z,00000200,01000000,0001.21,0000.37,0000.25,-000.47,0000.09,0000.16,-000.03,-000.13,0000.25,17.6,24.3,,00.0,0647.5,31.0
2021-10-30T14:12:00Z,00000200,01000000,0000.65,0000.07,-000.09,0000.08,-000.08,0000.29,0000.14,0000.23,0000.01,17.7,24.3,,00.0,0647.5,31.0
2021-10-30T14:13:00Z,00000200,01000000,0001.05,0000.66,0000.22,0000.46,0000.40,0000.30,0000.52,0000.10,0000.16,17.8,24.3,,00.0,0647.5,31.0
2021-10-30T14:14:00Z,00000200,01000000,0000.71,0000.49,0000.58,0000.20,-000.00,0000.33,0000.11,0000.15,0000.05,17.8,24.4,,00.0,0647.5,31.0
2021-10-30T14:15:00Z,00000200,01000000,0001.58,0000.17,0000.14,0000.51,0000.02,-000.17,0000.19,0000.56,0000.43,17.8,24.4,,00.0,0647.5,31.0
2021-10-30T14:16:00Z,00000200,01000000,0000.87,0000.53,0000.01,0000.35,-000.06,0000.22,0000.07,-000.00,-000.19,17.9,24.4,,00.0,0647.5,31.0
2021-10-30T14:17:00Z,00000200,01000000,0000.83,0000.72,-000.32,0000.71,-000.04,0000.36,0000.27,0000.38,0000.04,17.9,24.4,,00.0,0647.6,31.0
2021-10-30T14:18:00Z,00000200,01000000,0001.20,0000.42,0000.09,0000.05,0000.12,0000.48,0000.34,-000.06,0000.17,17.9,24.4,,00.0,0647.6,31.0
2021-10-30T14:19:00Z,00000200,01000000,0000.29,0000.69,0000.04,-000.15,0000.22,0000.35,-000.09,0000.13,0000.14,17.9,24.5,,00.0,0647.6,31.0
2021-10-30T14:20:00Z,00000200,01000000,0000.76,0000.62,0000.00,0000.21,0000.52,0000.17,0000.37,0000.37,0000.37,17.9,24.4,,00.0,0647.6,31.0
2021-10-30T14:21:00Z,00000200,01000000,0000.38,0000.75,0000.14,-000.09,-000.20,0000.09,0000.16,0000.12,0000.30,17.9,24.4,,00.0,0647.6,31.0
2021-10-30T14:22:00Z,00000200,01000000,0000.50,0000.58,0000.24,-000.06,0000.12,0000.25,0000.40,0000.29,-000.07,17.9,24.4,,00.0,0647.6,31.0
2021-10-30T14:23:00Z,00000200,01000000,0001.10,0000.49,-000.08,-000.01,0000.02,0000.47,0000.26,0000.05,0000.47,17.9,24.4,,00.0,0647.6,31.0
2021-10-30T14:24:00Z,00000200,01000000,0000.60,0000.27,-000.05,0000.20,-000.12,0000.11,0000.23,0000.36,-000.08,18.0,24.5,,00.0,0647.5,31.0
2021-10-30T14:25:00Z,00000200,01000000,0000.54,0000.19,-000.08,0000.15,-000.16,0000.13,0000.28,0000.19,0000.29,18.0,24.5,,00.0,0647.5,31.0
2021-10-30T14:26:00Z,00000200,01000000,0000.05,0000.10,-000.21,0000.10,0000.20,0000.03,-000.27,-000.31,-000.01,18.1,24.5,,00.0,0647.5,31.0
2021-10-30T14:27:00Z,00000200,01000000,0000.77,0000.35,0000.19,0000.08,-000.06,-000.06,0000.19,0000.40,0000.01,18.1,24.5,,00.0,0647.5,31.0
2021-10-30T14:28:00Z,00000200,01000000,0000.60,0000.45,0000.11,0000.15,0000.37,-000.34,0000.36,0000.20,0000.15,18.0,24.5,,00.0,0647.5,31.0
2021-10-30T14:29:00Z,00000200,01000000,0000.76,0000.29,0000.13,-000.22,0000.15,0000.33,0000.38,-000.15,0000.17,17.9,24.5,,00.0,0647.5,31.0
2021-10-30T14:30:00Z,00000200,01000000,0001.30,0000.20,0000.07,0000.38,-000.03,0000.21,0000.04,0000.37,-000.26,17.8,24.4,,00.0,0647.6,31.0
2021-10-30T14:31:00Z,00000200,01000000,0000.11,0000.35,0000.20,-000.31,0000.19,-000.03,0000.20,0000.24,0000.24,17.7,24.4,,00.0,0647.5,31.0
2021-10-30T14:32:00Z,00000200,01000000,0000.59,0000.53,0000.30,0000.70,0000.12,0000.12,0000.46,-000.08,0000.17,17.6,24.4,,00.0,0647.5,30.9
2021-10-30T14:33:00Z,00000200,01000000,0000.91,0000.28,0000.13,-000.76,0000.19,0000.11,-000.35,0000.30,-000.08,17.5,24.3,,00.0,0647.5,30.9
2021-10-30T14:34:00Z,00000200,01000000,0001.23,-000.00,0000.10,0000.42,0000.19,0000.29,0000.24,-000.02,0000.38,17.5,24.2,,00.0,0647.5,30.9
2021-10-30T14:35:00Z,00000200,01000000,-000.14,0000.37,-000.05,0000.11,-000.04,0000.39,0000.10,0000.31,-000.14,17.4,24.2,,00.0,0647.5,30.9
2021-10-30T14:36:00Z,00000200,01000000,0000.45,0000.52,0000.02,0000.30,0000.20,0000.54,0000.35,-000.05,0000.29,17.4,24.2,,00.0,0647.6,30.9
2021-10-30T14:37:00Z,00000200,01000000,0000.88,0000.66,-000.09,0000.25,0000.14,0000.06,0000.30,0000.27,0000.11,17.5,24.2,,00.0,0647.6,31.0
2021-10-30T14:38:00Z,00000200,01000000,0000.62,0000.60,0000.02,0000.51,0000.02,0000.27,0000.25,0000.22,0000.07,17.5,24.2,,00.0,0647.5,31.0
2021-10-30T14:39:00Z,00000200,01000000,0000.71,0000.29,-000.06,-000.12,-000.03,0000.04,0000.06,0000.19,0000.27,17.5,24.2,,00.0,0647.5,31.0
2021-10-30T14:40:00Z,00000200,01000000,0001.23,0000.34,0000.11,0000.23,0000.09,0000.29,0000.34,0000.43,0000.16,17.6,24.2,,00.0,0647.6,31.0
2021-10-30T14:41:00Z,00000200,01000000,0000.41,0000.56,0000.36,0000.57,-000.14,0000.22,0000.08,-000.09,0000.09,17.6,24.2,,00.0,0647.6,31.0
2021-10-30T14:42:00Z,00000200,01000000,0001.08,0000.22,0000.05,0000.59,-000.11,0000.07,0000.36,0000.45,0000.16,17.7,24.2,,00.0,0647.6,31.0
2021-10-30T14:43:00Z,00000200,01000000,0000.52,0000.50,-000.20,-000.31,0000.28,0000.28,0000.26,0000.09,0000.39,17.7,24.3,,00.0,0647.6,31.0
2021-10-30T14:44:00Z,00000200,01000000,0000.70,0000.43,0000.30,0000.06,0000.17,0000.34,0000.20,0000.20,0000.24,17.8,24.3,,00.0,0647.6,31.0
2021-10-30T14:45:00Z,00000200,01000000,0000.76,0000.19,0000.54,-000.46,-000.13,-000.17,0000.18,0000.35,0000.07,17.8,24.3,,00.0,0647.6,31.0
2021-10-30T14:46:00Z,00000200,01000000,0000.78,0000.47,0000.21,-000.33,0000.21,-000.01,0000.61,0000.53,0000.20,17.8,24.3,,00.0,0647.6,31.0
2021-10-30T14:47:00Z,00000200,01000000,0000.52,0000.30,0000.04,-001.04,-000.18,-000.10,0000.10,0000.38,0000.34,17.9,24.4,,00.0,0647.6,31.0
2021-10-30T14:48:00Z,00000200,01000000,0000.87,0000.50,-000.05,-000.05,0000.07,0000.22,0000.47,0000.09,-000.06,17.9,24.4,,00.0,0647.6,31.0
2021-10-30T14:49:00Z,00000200,01000000,0000.82,0000.49,0000.32,0000.18,0000.26,0000.24,0000.10,0000.29,0000.16,17.9,24.4,,00.0,0647.6,31.0
2021-10-30T14:50:00Z,00000200,01000000,0000.86,0000.34,0000.27,-000.10,0000.18,0000.40,0000.21,0000.12,0000.52,17.9,24.4,,00.0,0647.6,31.0
2021-10-30T14:51:00Z,00000200,01000000,0000.39,0000.71,0000.39,-000.10,-000.11,0000.32,0000.47,0000.36,0000.27,17.9,24.4,,00.0,0647.5,31.0
2021-10-30T14:52:00Z,00000200,01000000,0000.62,0000.36,0000.09,-000.04,-000.07,0000.08,0000.36,0000.40,0000.10,17.9,24.4,,00.0,0647.5,31.0
2021-10-30T14:53:00Z,00000200,01000000,0001.02,0000.42,0000.45,-000.22,0000.30,0000.36,0000.11,0000.15,0000.29,17.9,24.4,,00.0,0647.5,31.0
2021-10-30T14:54:00Z,00000200,01000000,0000.86,0000.06,0000.01,0000.22,-000.00,0000.00,0000.23,0000.06,-000.06,17.9,24.4,,00.0,0647.5,31.0
2021-10-30T14:55:00Z,00000200,01000000,0000.91,0000.40,0000.18,0000.49,0000.36,0000.30,0000.55,0000.37,0000.38,18.0,24.4,,00.0,0647.5,31.0
2021-10-30T14:56:00Z,00000200,01000000,0000.44,0000.27,0000.12,0000.48,0000.09,0000.02,0000.23,0000.31,0000.33,18.1,24.5,,00.0,0647.5,31.0
2021-10-30T14:57:00Z,00000200,41000000,,,,,,,0000.40,0000.13,0000.48,18.1,24.5,,00.0,0647.5,31.0
2021-10-30T14:58:00Z,00000200,61000000,,,,,,,-000.18,0000.41,-000.13,17.9,24.6,,00.0,0646.6,31.1
2021-10-30T14:59:00Z,00000200,21000000,,,,,,,0000.05,-000.00,-000.32,17.9,24.7,,00.0,0646.6,31.1
